Terminal Aerodrome Forecast
Issued by NWS Twin Cities, MN

Home | Current Version | Previous Version | Graphics & Text | Print | Product List | Glossary On
Versions: 1 2 3 4 5 6 7 8 9 10 11 12 13 14 15 16 17 18 19 20 21 22 23 24 25 26 27 28 29
000
FTUS43 KMPX 192000 AAB
TAFMSP
TAF AMD
KMSP 192041Z 1921/2024 17013KT P6SM SCT035 BKN070
     FM200200 19006KT P6SM SCT100 BKN200
     FM201400 18013G20KT P6SM SCT060 BKN150=

USA.gov is the U.S. government's official web portal to all federal, state and local government web resources and services.